User: anonymous   Login
Location: Theydon Bois
(51.6750°N, 0.1050°E)
Time: 19:18:02
(UTC+00:00)
Language:

Cosmos 1371 Rocket - Orbit

View from above orbital plane
View from above orbital plane
View from above satellite
View from above satellite

Ground track
Ground track

The orbit data is extracted from the following two-line orbital elements,

1 13242U 82051B   17344.64280201 +.00000018 +00000-0 +15235-4 0  9999
2 13242 074.0449 029.1399 0025133 190.1328 298.3336 14.35889880858653
Epoch (UTC): 10 December 2017 15:25:38
Eccentricity: 0.0025133
inclination: 74.0449°
perigee height: 754 km
apogee height: 790 km
right ascension of ascending node: 29.1399°
argument of perigee: 190.1328°
revolutions per day: 14.35889880
mean anomaly at epoch: 298.3336°
orbit number at epoch: 85865

The dashed part of the orbit path shows where the satellite is in the earth's shadow,  

DLR